sat.trackr.live / text

‹ back to catalog

YUNHAI-2 01E

NORAD 43913 · 2018-112E

PAYLOAD ACTIVE UNKNOWN

§ Identity

Operator
Country
PRC
Launch date
2018-12-29
Launch site
JSC
Launch vehicle
Mass (kg)
RCS (m²)

External: N2YO · Heavens-Above · Gunter

§ Orbital elements

Epoch: 2026-05-25T03:27:49.858848Z

Period
100.77 min
Inclination
50.0071°
Eccentricity
0.0005052
Mean motion
14.29000827 rev/d
Perigee alt
791.4 km
Apogee alt
798.7 km
Semi-major
7,173.2 km
B*
8.3344e-5
RAAN
264.5611°
Arg perigee
281.6723°
Mean anomaly
78.3625°
Rev number
38,586

§ Raw data

YUNHAI-2 01E1 43913U 18112E   26145.14432707  .00000051  00000+0  83344-4 0  99902 43913  50.0071 264.5611 0005052 281.6723  78.3625 14.29000827385865

JSON: /api/v1/satellites/43913 · /tle

For live sub-satellite position, see the globe view (requires WebGL).

§ Visibility from observer

Set your observer location to see the next 7 days of passes ≥ 10°. The values pass through the URL so the page stays shareable.

No JS? Fill the form by hand. The geolocation button needs JavaScript.